Showing default

GSAT 15, 41028

Orbit data source: Space-Track

GSAT 15, 41028 is a payload satellite owned by ISRO (IN) in GEO that was launched on Tue, 10 Nov 2015 UTC via an ARIANE 5ECA launch vehicle from the French Guiana (FRGUI). Payload-class satellites include a variety of spacecraft equipped with specific instruments for various scientific and technological missions. These include communications satellites like Starlink; space stations such as the ISS; scientific satellites like the Hubble; Earth observation satellites from companies like Planet Labs, Umbra, and HawkEye 360; GPS; miniature CubeSats for education and research; and military/defense satellites.

Not visible in the next 10 days
Identifier
41028, 2015-065A
Orbit
GEO
Last TLE update
20 hours ago
Origin
Manufacturer
ISRO SAC/Banga
Mission
Operational Civil Communications
Bus & Motor
I3K, ISRO LAM
Mass
3,165 kg wet, ~1,200 kg dry
Launch date (UTC)
2015-11-10 (10 years ago)
Launch vehicle
ARIANE 5ECA
Launch site
French Guiana (FRGUI)
Object type
Payload
Rocket body
Debris
Shape & HBR
Box + 2 Pan, 15.5 m
Radar Cross Section
15.451 m², Large (>1 m²)

Expand to show TLE details & history

TLE from 20 hours ago
0 GSAT 15
1 41028U 15065A   25181.58637483 -.00000258  00000-0  00000-0 0  9999
2 41028   0.0491 245.4014 0003778 191.8608 146.2063  1.00269738 35274
Epoch: 2025-06-30T14:04Z
TLE epoch observation values (Epoch: 2025-06-30T14:04:22.785Z)
Latitude
-0.02906°
Longitude
93.51846°
Altitude
35,799.919 km
Speed
3.074 km/s
True Right ascension
14h 54m 01s
True Declination
0° 01' 45"
Sunlit
Object was in daylight at epoch
Visualization orbit readout
Latitude
-0.03192°
Longitude
40.36067°
Altitude
35,787.551 km
Speed
3.075 km/s
Apparent Right ascension
11h 13m 43s
Apparent Declination
-4° 59' 47"
Sunlit
Object is in daylight
Visualization observer readout
Local Sidereal Time
22:06:48
Azimuth
332.263° NNW
Elevation
-51.963°
Doppler factor
1
Orbital elements
Apogee altitude
35,804.17 km
Perigee altitude
35,772.309 km
Semi-major axis
42,166.376 km
Eccentricity
0.00038
Inclination
0.0491°
RAAN
245.4014°
Arg. of periapsis
191.8608°
True anomaly
Unknown
Mean anomaly
146.2063°
Eccentric anomaly
Unknown
Mean motion
0.25067 °/min
Orbital period
1,436.18 mins
BSTAR
0
Loading historical data...
41028 neighbors
Loading maneuver chart data...
Loading SW <> Apogee altitude chart data...
Loading historical data...
Loading historical data...
Loading historical data...
Loading historical data...
Loading historical data...
Loading historical data...
Loading historical data...
Other satellites on launch #65 in the year 2015 (2015-11-10 UTC)

GSAT 15 Visibility

Observer location: undefined°, undefined°

GSAT 15 is likely not visible in the next few days
Span
Click to sort rows by Start time (UTC) header in descending order
Start Az.
Max El. time (UTC)
Max El. Az.
Max El.
End time (UTC)
End Az.
|